Wind_Speed
80 77 75 72 69 67 64 63 61 61 64 64 58 56 56 55 55 55 55 55 54 53 53 54 54 56 60 64 67 69 71 75 78 82 85 89 94 99 104 109 114 119 124 127 130 134 137 140 143 148 153 157 160 163 166 168 168 167 167 167 167 169 171
78 76 74 71 68 66 64 63 62 61 64 64 58 55 56 55 55 55 55 55 54 53 53 54 54 55 58 62 66 68 70 73 77 80 84 87 91 96 100 105 110 115 119 123 126 130 134 137 141 144 147 151 155 158 163 166 167 167 167 167 167 167 169
77 75 73 70 68 66 64 63 62 61 64 64 58 55 56 55 55 56 55 55 54 53 53 54 54 54 56 61 64 66 68 72 75 79 82 85 88 93 97 101 106 111 115 119 121 125 129 134 138 142 143 145 149 152 156 161 164 166 167 168 167 167 168
77 74 72 70 68 66 64 62 61 61 64 63 57 55 55 54 55 56 55 55 54 53 53 55 54 53 55 59 62 64 67 70 74 77 80 84 87 90 94 98 102 107 111 115 117 120 124 128 134 139 141 142 144 147 150 154 159 162 165 167 168 168 168
76 73 71 70 68 66 63 61 60 61 64 61 56 54 55 54 55 56 55 54 54 53 53 55 54 53 54 58 60 62 65 68 72 76 79 82 85 89 92 95 99 103 107 111 114 117 120 123 128 133 138 140 141 143 145 148 152 155 159 163 167 169 169
75 72 70 69 67 65 62 60 59 61 63 60 54 53 54 54 55 56 55 54 53 52 53 55 55 53 54 57 58 60 63 66 70 74 77 80 83 87 90 93 96 100 104 108 111 114 117 120 123 128 134 138 140 141 142 143 146 149 153 158 162 167 169
74 71 70 68 66 64 61 59 59 60 61 57 53 53 54 54 54 56 55 54 53 52 53 55 55 53 53 56 58 59 61 64 67 71 75 78 81 84 88 92 94 97 101 104 108 111 114 117 120 124 129 133 137 140 141 142 143 145 148 152 157 162 167
71 70 69 67 65 62 60 59 58 59 59 55 51 52 53 53 54 55 55 53 52 52 53 54 55 54 53 55 57 58 60 62 65 68 72 76 79 82 85 89 93 96 98 102 105 109 112 115 118 121 125 129 133 137 140 141 142 143 145 148 151 156 162
68 68 67 65 63 61 59 58 58 58 56 53 50 51 53 53 54 55 54 53 52 52 52 53 54 54 54 54 56 58 58 60 63 66 69 73 77 80 83 86 90 93 96 99 102 106 109 113 116 118 121 125 129 134 137 139 140 142 143 145 147 150 155
65 66 66 63 61 59 58 57 57 56 54 51 49 50 52 53 54 54 53 52 52 51 52 52 53 54 54 54 55 57 58 58 61 64 67 69 74 78 81 84 87 90 94 97 99 103 106 110 113 115 118 121 124 129 134 137 138 140 141 143 145 147 149
62 63 63 61 60 58 57 57 56 55 52 49 48 50 52 53 54 54 52 52 51 51 51 51 52 54 54 54 55 56 57 58 59 62 65 67 71 75 79 82 84 87 91 94 97 99 103 106 109 112 115 118 120 123 129 133 136 138 140 142 144 145 146
59 61 61 59 58 57 56 56 55 53 50 47 47 50 52 53 53 53 52 51 51 50 50 50 52 53 54 54 54 55 56 57 58 59 62 66 69 73 76 79 81 85 88 91 94 96 99 102 105 108 111 114 116 119 123 128 132 135 137 140 142 144 146
57 58 58 57 56 55 55 55 54 52 49 46 47 49 51 52 52 51 51 51 51 49 49 50 51 53 53 54 54 54 55 56 57 58 60 64 67 71 73 76 78 82 85 88 91 94 96 99 102 105 107 110 113 115 118 122 126 130 133 136 139 142 145
55 56 56 55 55 55 55 54 52 50 48 46 47 49 50 51 51 50 51 51 50 48 48 49 51 52 53 53 54 54 53 54 56 58 59 61 65 68 71 73 76 78 82 86 89 91 94 96 99 101 104 106 109 112 114 117 121 125 129 132 135 139 142
54 54 53 54 54 54 54 53 51 49 46 45 47 48 49 50 50 50 50 50 49 48 47 49 51 52 52 53 53 53 52 53 54 56 58 60 62 65 68 71 74 76 79 83 86 89 91 94 96 98 101 103 105 108 110 113 116 120 124 128 132 135 139
52 51 51 52 53 53 53 52 50 48 45 45 47 47 48 49 49 49 49 49 48 47 47 48 50 51 52 52 52 52 52 52 53 55 57 59 59 61 65 69 71 74 77 80 83 86 89 92 94 96 98 101 103 105 107 109 112 116 120 124 129 133 137
51 50 50 51 51 51 51 51 49 47 45 45 46 46 47 48 48 48 48 47 47 47 47 48 49 50 51 51 51 51 51 51 51 53 56 57 57 59 62 66 69 72 75 77 79 82 85 89 91 93 95 98 100 102 104 106 109 112 116 120 124 129 135
49 49 49 49 49 50 50 50 48 46 45 45 46 45 46 47 47 48 47 47 46 46 46 47 48 49 50 50 50 50 50 49 50 52 54 55 56 57 59 62 65 69 72 74 76 79 82 85 88 90 92 94 97 99 102 104 106 108 111 115 119 124 130
48 48 48 48 48 49 49 48 47 45 44 45 45 45 45 46 46 47 47 46 45 45 46 47 47 48 49 49 49 50 49 48 49 51 53 53 54 56 57 58 60 65 69 72 74 76 78 81 84 86 89 91 93 96 98 101 103 105 108 111 115 119 123
46 46 46 46 47 47 47 47 45 44 44 45 44 44 44 45 46 46 45 44 44 45 46 47 46 47 48 48 49 49 48 47 48 50 51 51 53 54 54 54 57 62 66 69 71 73 75 77 80 82 85 87 89 92 95 97 99 101 104 107 110 114 117
45 45 45 45 46 46 46 45 44 43 44 44 43 43 44 45 45 44 43 43 43 45 46 46 45 46 46 47 48 48 46 46 47 49 50 50 51 52 51 52 55 59 63 66 69 70 71 74 77 79 81 83 85 87 90 93 95 98 100 103 106 109 113
44 44 44 45 45 44 44 44 43 43 43 43 42 42 43 44 43 42 42 42 43 44 45 45 45 45 45 46 47 46 45 45 46 47 48 48 48 49 50 51 53 56 59 63 66 68 69 71 73 76 78 80 81 83 85 87 91 94 97 100 103 106 109
43 43 44 44 43 43 42 42 42 42 42 41 41 41 43 43 42 41 41 42 42 43 44 44 44 44 44 45 45 45 44 44 45 46 46 46 46 47 48 49 51 53 57 60 63 65 67 69 69 71 74 76 77 79 81 84 88 91 94 97 100 103 106
42 42 43 42 41 41 41 41 41 42 41 40 40 41 42 42 41 40 40 40 41 42 43 43 43 44 44 44 44 43 42 43 45 45 45 44 45 45 46 47 49 52 55 58 60 63 65 65 66 67 70 72 74 77 80 82 85 88 90 93 96 98 101
40 41 41 40 40 40 40 40 40 40 40 39 40 40 41 40 39 39 39 40 41 42 42 42 43 43 43 43 43 41 41 42 43 44 44 43 43 44 45 46 47 50 53 55 57 60 61 62 63 64 66 68 72 76 78 80 81 83 85 88 90 93 96
39 39 39 38 38 39 39 39 38 39 39 39 39 39 39 39 38 37 38 39 40 40 40 41 42 43 42 42 42 40 39 40 42 43 44 43 42 42 43 44 45 48 51 53 54 56 58 58 59 61 63 66 70 73 75 76 77 79 81 83 86 89 92
37 37 37 37 37 38 37 37 37 38 38 38 38 37 37 37 36 36 38 39 39 39 40 41 42 42 42 41 41 39 38 39 40 42 42 42 41 41 42 42 43 46 48 50 51 52 54 55 56 59 62 65 68 69 70 72 74 76 77 79 82 85 88
36 36 36 35 36 36 36 36 36 37 37 37 36 36 36 36 36 36 37 38 38 38 39 40 40 41 41 41 40 38 38 38 39 41 41 41 41 41 41 41 42 43 46 48 49 49 51 52 54 57 60 62 64 66 67 69 70 72 73 75 78 81 84
35 35 34 34 34 35 35 35 35 36 35 35 34 34 35 35 35 35 36 36 37 38 39 39 39 40 40 40 39 38 37 37 38 39 40 41 41 40 40 40 40 41 43 45 46 47 48 50 52 55 58 59 61 63 64 66 68 69 70 72 74 77 79
33 33 32 33 34 34 35 35 34 33 33 33 33 34 34 34 34 34 34 35 36 37 38 38 38 39 39 38 38 37 37 37 37 38 39 40 40 40 39 39 39 40 40 42 44 45 47 48 51 53 55 56 58 59 62 64 65 66 67 69 70 73 74
31 31 32 32 33 34 34 33 32 31 31 32 33 33 33 33 33 33 33 34 35 36 37 37 38 38 38 37 37 37 36 36 37 38 39 39 40 40 39 38 38 38 39 40 41 43 45 47 49 51 52 54 55 57 59 61 63 63 65 66 67 68 70
31 31 31 32 33 33 32 31 31 30 31 32 32 32 32 32 33 33 33 34 35 35 35 36 37 37 37 37 36 36 36 36 36 37 38 39 39 39 39 38 37 37 37 38 39 41 43 45 47 49 50 51 53 55 57 59 60 61 62 63 64 65 66
30 31 31 32 32 31 31 30 30 30 31 31 31 31 31 32 32 32 33 34 34 34 34 35 36 36 36 36 36 35 35 35 36 36 37 38 39 39 38 38 37 37 37 37 37 38 40 42 44 46 48 49 51 53 55 57 58 59 60 61 62 62 63
30 31 31 31 31 30 30 30 30 30 30 30 30 31 31 31 31 32 33 33 33 33 34 34 35 35 35 35 35 35 35 35 36 36 37 37 38 38 38 37 37 37 36 36 36 37 38 40 42 44 45 47 49 51 53 55 56 58 58 59 59 59 60
30 31 31 30 30 30 30 30 29 29 29 30 30 30 31 31 31 32 33 33 32 32 33 33 34 34 34 35 35 35 35 36 36 36 36 37 37 37 37 37 37 36 36 36 35 36 37 38 40 41 42 44 46 48 51 53 55 56 57 57 57 57 58
29 30 30 30 30 30 30 30 29 29 29 29 30 30 30 31 31 32 32 32 32 32 32 33 33 34 34 35 35 35 35 35 35 35 36 36 36 37 37 37 36 36 36 35 35 35 36 37 38 39 40 41 43 45 48 51 53 54 55 55 55 55 56
Wind_Direction
297 297 296 295 294 293 291 289 286 283 281 280 279 277 274 271 269 267 264 261 258 254 250 245 241 239 240 241 242 241 239 237 236 235 232 230 229 229 228 228 228 228 228 228 228 229 230 230 229 228 227 227 227 227 227 227 226 226 226 226 226 226 226
296 296 295 294 293 292 290 287 285 282 280 279 278 276 273 271 269 267 264 261 258 254 251 248 242 238 237 239 240 241 240 238 236 236 234 232 230 229 228 228 228 228 228 228 228 229 229 230 231 230 229 229 228 227 227 228 227 227 226 227 227 226 226
295 295 294 293 292 290 288 285 283 280 278 278 277 275 272 270 268 266 264 261 258 255 252 250 245 239 236 237 238 239 239 239 237 236 235 234 232 230 229 228 228 228 228 228 228 228 229 229 230 231 231 230 230 229 228 228 228 227 227 227 227 227 227
295 294 293 292 290 288 286 284 281 278 277 277 276 274 271 269 267 266 264 261 258 255 253 251 247 241 238 236 236 237 238 238 238 236 235 234 233 232 230 228 228 228 228 228 229 228 228 228 229 230 232 232 231 230 230 229 229 228 227 227 227 227 228
294 293 292 291 288 286 284 282 279 276 275 275 275 272 270 268 266 265 263 261 258 255 253 252 249 244 240 238 236 236 236 237 237 237 235 234 233 233 232 230 229 228 228 228 229 229 228 228 228 229 231 232 232 232 231 231 230 229 228 227 227 227 228
293 292 291 289 286 284 283 280 277 275 274 274 273 270 269 267 265 264 263 260 258 255 253 252 250 246 243 241 238 235 236 236 236 237 236 235 233 233 232 231 230 229 229 229 229 229 229 228 228 228 230 231 232 233 233 232 231 230 229 228 228 228 228
292 291 289 287 285 283 281 279 276 273 273 273 271 269 267 266 264 263 262 260 257 254 252 252 251 248 244 243 240 237 236 236 236 236 236 236 234 233 232 232 231 230 229 229 229 229 229 229 229 228 228 230 231 232 233 233 233 232 231 230 229 228 228
290 289 286 284 283 282 280 277 275 272 272 272 270 267 265 264 263 262 261 260 257 254 252 251 251 249 246 244 242 239 236 237 237 236 235 235 235 234 233 232 231 231 230 230 229 229 229 230 230 229 228 228 229 231 232 233 233 233 233 232 231 230 229
288 286 284 282 281 280 278 276 273 272 271 271 268 265 264 263 261 261 260 259 256 253 251 250 250 249 247 245 244 241 238 236 238 238 236 235 235 235 234 233 231 231 231 230 230 230 230 230 230 230 229 228 228 229 231 232 232 233 234 233 233 232 231
285 283 281 281 280 278 276 274 272 271 270 269 266 264 262 261 260 260 259 258 255 252 250 249 249 248 247 246 244 243 240 237 237 238 238 236 235 235 235 235 233 232 231 231 231 230 230 230 230 230 230 229 228 228 229 230 231 232 233 234 234 234 233
283 281 280 279 278 276 274 273 271 271 270 267 264 262 261 260 259 259 258 257 254 251 249 248 248 247 247 246 245 244 242 239 237 237 238 238 236 235 235 235 235 234 232 232 232 231 231 231 230 230 230 230 229 228 228 229 230 231 231 233 234 235 235
281 279 278 277 276 274 273 271 270 270 269 266 262 260 259 259 258 258 258 256 253 250 249 247 247 246 246 246 246 244 242 241 239 237 237 238 238 237 235 234 235 235 234 233 233 232 232 232 232 231 231 230 230 229 228 229 229 230 230 231 232 234 235
279 277 276 275 274 273 271 270 270 269 267 264 260 258 258 257 257 257 256 255 251 249 247 246 246 245 245 246 246 245 242 241 240 238 237 238 238 238 237 235 234 234 235 235 234 233 233 233 233 233 232 231 231 230 229 229 229 230 230 231 231 232 233
278 276 275 273 272 271 270 269 269 268 266 262 259 257 257 256 256 255 255 254 251 247 246 245 245 245 245 246 246 246 244 241 241 240 239 238 238 238 238 236 235 234 234 234 235 234 234 234 234 234 234 233 232 231 231 230 230 230 231 231 232 232 233
276 275 273 272 270 269 269 269 268 267 264 261 258 257 256 255 255 254 254 253 250 246 244 244 244 244 244 245 246 246 245 242 241 241 240 239 237 238 238 237 236 234 233 233 234 234 234 234 235 235 235 234 234 233 232 231 231 231 231 232 232 233 233
275 273 271 270 269 269 269 268 267 265 263 259 257 256 254 254 254 253 252 251 249 246 243 242 243 243 244 245 246 246 245 243 242 241 241 240 238 237 237 237 237 236 234 233 233 233 233 234 234 235 235 235 235 234 234 233 232 231 231 231 232 233 233
274 272 270 269 268 268 268 267 266 264 261 258 257 255 253 253 253 252 252 250 248 245 243 242 242 242 243 244 245 246 246 244 243 242 242 241 239 237 236 237 237 236 236 235 234 233 232 233 234 234 234 235 235 235 235 234 233 233 232 232 232 232 233
273 271 270 269 268 267 267 266 265 263 260 257 256 254 253 252 252 251 251 249 246 244 243 242 241 241 243 244 245 246 246 244 243 243 243 242 240 239 237 236 236 237 236 235 235 234 233 232 233 233 234 235 235 235 235 235 234 234 233 233 232 232 233
273 271 269 268 267 266 266 265 264 261 258 256 255 254 252 251 251 250 250 248 245 243 242 242 241 241 242 244 245 246 246 245 244 244 243 243 242 240 238 236 236 237 237 236 235 235 234 234 233 233 233 234 235 235 236 235 235 235 234 234 234 233 233
273 271 269 268 267 266 265 264 262 259 257 255 255 253 252 251 249 249 248 247 244 242 242 241 241 241 242 243 245 246 246 245 245 244 244 243 243 242 239 237 236 237 237 237 236 234 234 235 234 233 233 233 234 235 235 236 236 235 235 235 235 234 234
272 271 269 267 266 264 264 263 261 258 256 255 254 253 251 250 249 248 247 246 243 242 242 241 241 241 242 243 245 246 247 246 245 244 244 243 243 243 241 238 237 237 237 238 237 235 234 234 235 234 234 233 234 234 235 235 236 236 236 236 235 235 235
272 270 268 266 265 264 263 261 259 256 254 254 253 252 250 249 248 247 246 244 243 242 242 241 241 241 242 243 245 246 247 247 246 245 244 243 243 243 242 239 238 237 237 238 238 236 235 234 234 234 235 234 234 234 235 235 235 235 235 236 235 235 235
270 269 267 266 265 263 261 260 257 255 253 252 251 250 249 249 247 246 245 243 243 242 242 241 241 241 242 243 245 246 247 247 248 247 245 244 243 243 242 240 239 238 238 238 238 237 236 235 234 234 234 235 235 234 234 235 234 234 234 234 235 235 235
270 268 267 265 264 262 259 257 255 254 252 251 250 249 248 248 247 245 244 243 242 242 242 242 241 242 242 243 244 245 246 247 249 249 247 245 243 243 242 240 239 239 238 238 238 238 238 237 235 234 234 234 235 235 234 234 234 234 234 234 234 235 236
270 268 266 265 262 260 258 256 254 252 251 249 248 247 247 247 246 244 243 243 242 242 242 242 242 242 242 243 244 244 245 247 249 250 249 247 245 244 242 240 239 240 240 239 239 239 239 238 237 236 235 234 234 234 235 235 235 235 235 235 234 235 235
270 268 266 263 260 258 256 254 253 251 249 248 247 246 246 246 245 244 242 242 242 242 242 242 243 243 243 244 244 244 245 247 248 250 250 249 247 245 243 241 240 241 242 241 240 240 240 239 238 237 237 235 235 235 235 236 236 236 236 235 235 234 235
271 267 264 262 259 257 255 253 250 249 248 247 247 246 245 244 243 242 242 242 242 242 243 243 243 244 244 245 245 245 245 246 248 250 251 251 249 247 244 242 241 242 243 243 242 240 240 239 239 238 237 237 237 236 236 236 236 236 236 236 236 235 235
269 266 263 260 258 256 253 250 248 246 246 246 246 244 243 243 242 241 241 242 242 242 243 244 244 244 245 245 246 245 245 246 248 250 251 251 251 248 245 243 242 242 244 245 244 242 240 239 239 238 238 238 238 237 237 237 237 237 237 237 237 236 236
268 265 263 260 257 254 251 248 246 245 245 245 244 243 242 241 241 240 241 241 242 242 243 244 245 245 245 246 246 246 246 247 248 250 251 252 252 250 247 244 243 243 244 245 245 244 242 240 239 239 239 239 239 238 238 238 237 237 237 237 237 237 237
268 265 262 258 255 253 250 247 245 244 244 244 242 241 240 240 240 240 240 241 242 243 244 245 245 245 246 246 247 247 246 247 248 250 251 252 252 251 249 247 245 244 244 245 245 245 243 242 241 240 240 239 239 239 239 239 238 238 238 238 239 239 239
268 264 260 256 253 251 249 246 244 243 242 241 240 239 239 240 240 240 240 240 242 243 244 245 245 246 246 247 247 247 247 247 248 250 251 252 253 252 251 249 247 246 245 245 245 245 244 243 242 241 240 240 240 239 239 240 239 239 238 239 239 240 240
268 264 259 255 252 250 248 246 243 241 240 239 239 239 238 239 240 240 240 241 242 243 244 245 246 246 247 247 248 248 247 247 248 250 251 252 253 253 252 251 249 248 247 246 245 245 244 243 243 242 242 241 240 240 240 240 240 240 239 239 240 240 241
269 264 259 255 252 250 247 245 242 240 239 238 238 237 237 237 239 240 241 241 242 243 244 245 245 246 247 248 248 248 248 248 248 249 250 252 253 253 253 252 251 250 249 247 246 245 245 244 243 243 242 242 241 241 241 241 241 241 241 241 240 240 241
268 263 258 255 251 248 246 244 242 240 238 237 237 236 236 237 238 240 242 243 243 243 244 244 246 247 247 248 248 249 248 248 248 249 250 251 252 253 253 253 252 251 250 249 248 247 246 245 244 243 242 242 242 242 242 242 242 242 242 242 241 241 241
266 262 258 253 250 247 245 243 242 240 238 237 236 235 235 236 238 240 242 243 244 244 244 245 246 247 248 248 248 248 248 248 249 249 249 250 252 253 253 253 252 252 251 251 250 249 248 247 245 244 243 242 242 242 242 243 243 243 243 243 243 242 242
266 262 257 252 249 246 245 243 242 240 238 236 235 235 235 236 238 240 242 243 244 244 245 246 246 247 248 248 248 248 248 249 249 249 249 250 251 252 253 253 253 252 252 252 251 251 249 248 247 245 244 243 242 242 242 242 243 243 244 244 243 243 244
Height
10079 10076 10072 10069 10065 10062 10060 10057 10054 10052 10049 10045 10045 10044 10042 10042 10042 10041 10041 10041 10042 10043 10044 10046 10047 10047 10047 10047 10048 10050 10054 10058 10061 10066 10070 10076 10081 10087 10094 10100 10106 10112 10118 10125 10135 10143 10152 10162 10171 10178 10186 10195 10205 10215 10223 10232 10243 10254 10264 10275 10286 10297 10307
10065 10062 10058 10055 10053 10050 10047 10044 10042 10040 10037 10034 10033 10033 10031 10031 10030 10030 10030 10030 10031 10032 10033 10034 10037 10038 10038 10038 10039 10041 10043 10046 10050 10053 10057 10063 10069 10074 10081 10088 10093 10099 10104 10111 10120 10129 10137 10146 10154 10162 10170 10179 10188 10197 10205 10214 10225 10236 10247 10257 10268 10279 10289
10051 10048 10045 10042 10040 10037 10035 10033 10030 10028 10025 10022 10022 10022 10020 10020 10019 10018 10019 10019 10020 10021 10021 10023 10026 10028 10029 10028 10030 10032 10034 10035 10038 10041 10044 10049 10055 10061 10068 10075 10081 10086 10090 10096 10104 10114 10123 10132 10140 10146 10154 10162 10171 10180 10188 10197 10208 10219 10229 10239 10250 10261 10271
10036 10034 10032 10029 10026 10024 10023 10021 10019 10016 10013 10011 10011 10011 10009 10009 10008 10007 10007 10008 10009 10010 10010 10011 10014 10017 10018 10019 10021 10023 10025 10025 10026 10030 10033 10037 10042 10047 10054 10061 10067 10072 10077 10082 10090 10098 10107 10116 10125 10132 10138 10146 10154 10162 10171 10181 10191 10200 10211 10222 10233 10243 10253
10022 10020 10018 10016 10013 10012 10010 10009 10007 10005 10002 10000 10001 10000 9999 9998 9997 9996 9997 9997 9998 9999 9999 10000 10002 10006 10007 10008 10011 10014 10016 10016 10017 10019 10022 10027 10031 10034 10040 10047 10053 10059 10064 10070 10075 10082 10091 10100 10109 10117 10123 10130 10137 10145 10155 10164 10173 10183 10195 10206 10216 10226 10235
10008 10007 10005 10002 10000 9999 9998 9997 9996 9993 9990 9990 9990 9989 9988 9988 9987 9986 9986 9987 9988 9988 9988 9988 9991 9995 9996 9997 10000 10004 10006 10006 10008 10010 10012 10016 10019 10023 10027 10032 10039 10046 10051 10056 10061 10067 10075 10083 10092 10101 10109 10115 10121 10129 10138 10148 10157 10167 10177 10187 10197 10207 10217
9995 9994 9991 9989 9987 9986 9986 9985 9984 9981 9979 9979 9980 9979 9977 9977 9976 9975 9975 9976 9978 9978 9978 9977 9979 9983 9985 9986 9989 9993 9995 9996 9998 10000 10002 10005 10008 10011 10015 10020 10026 10032 10038 10043 10048 10054 10060 10067 10075 10085 10094 10101 10107 10115 10123 10132 10140 10150 10159 10169 10179 10189 10199
9982 9980 9978 9976 9975 9974 9974 9973 9971 9970 9969 9969 9969 9968 9967 9966 9966 9965 9965 9967 9968 9968 9967 9967 9969 9972 9974 9975 9977 9981 9984 9986 9988 9990 9993 9995 9996 9999 10003 10008 10013 10018 10024 10030 10035 10041 10047 10054 10060 10069 10079 10087 10095 10102 10109 10116 10123 10133 10142 10151 10161 10171 10180
9969 9966 9964 9963 9963 9962 9962 9961 9959 9958 9958 9958 9958 9957 9956 9955 9955 9955 9956 9957 9958 9958 9957 9958 9959 9961 9963 9965 9967 9970 9973 9976 9978 9980 9982 9985 9986 9988 9991 9996 10001 10006 10011 10017 10023 10029 10035 10041 10046 10054 10064 10073 10082 10088 10094 10100 10108 10117 10125 10133 10144 10153 10162
9956 9952 9950 9950 9950 9950 9949 9948 9947 9947 9948 9948 9948 9947 9946 9945 9944 9945 9946 9947 9948 9948 9948 9949 9950 9951 9953 9955 9956 9959 9962 9966 9968 9969 9972 9975 9976 9977 9979 9983 9988 9994 9999 10004 10010 10016 10021 10027 10034 10041 10049 10058 10067 10074 10080 10086 10095 10104 10111 10117 10126 10136 10144
9942 9939 9937 9937 9937 9937 9937 9936 9936 9936 9937 9938 9938 9937 9935 9934 9934 9935 9937 9938 9938 9938 9939 9939 9940 9941 9943 9944 9946 9949 9951 9955 9957 9959 9962 9964 9965 9966 9969 9972 9976 9981 9986 9991 9997 10002 10008 10014 10021 10028 10034 10042 10051 10060 10067 10073 10080 10089 10096 10102 10111 10119 10125
9929 9926 9925 9925 9925 9925 9925 9924 9925 9926 9926 9927 9927 9926 9924 9924 9924 9926 9927 9928 9929 9929 9930 9930 9931 9931 9933 9934 9937 9939 9941 9944 9947 9950 9952 9954 9955 9956 9959 9963 9966 9969 9973 9978 9983 9988 9994 10000 10006 10013 10019 10027 10035 10044 10052 10059 10066 10074 10081 10088 10096 10102 10108
9916 9914 9913 9913 9913 9913 9913 9912 9914 9915 9916 9916 9916 9915 9914 9914 9915 9917 9918 9918 9920 9921 9921 9921 9921 9922 9923 9925 9927 9929 9931 9934 9937 9940 9942 9944 9945 9946 9950 9953 9957 9959 9962 9965 9969 9975 9980 9985 9991 9997 10004 10011 10019 10027 10035 10043 10050 10058 10065 10073 10080 10087 10093
9904 9902 9902 9902 9901 9901 9901 9901 9903 9904 9905 9906 9906 9905 9905 9904 9906 9908 9908 9909 9911 9912 9912 9912 9912 9913 9914 9916 9917 9919 9922 9925 9927 9929 9932 9934 9935 9937 9940 9944 9947 9949 9952 9953 9956 9962 9967 9971 9976 9982 9988 9995 10003 10010 10019 10027 10035 10043 10050 10057 10064 10071 10078
9892 9891 9891 9890 9890 9890 9889 9891 9892 9893 9894 9895 9895 9895 9895 9894 9896 9898 9899 9900 9902 9903 9903 9904 9903 9904 9905 9907 9908 9910 9913 9915 9917 9919 9921 9924 9926 9929 9931 9933 9936 9939 9941 9942 9946 9951 9955 9958 9963 9967 9973 9979 9987 9995 10003 10012 10020 10028 10035 10041 10047 10054 10061
9880 9880 9880 9879 9879 9879 9879 9880 9882 9883 9884 9885 9885 9885 9885 9885 9886 9888 9890 9891 9893 9894 9895 9895 9895 9895 9897 9898 9899 9901 9903 9906 9908 9910 9911 9913 9917 9920 9921 9923 9926 9928 9929 9932 9936 9940 9943 9947 9950 9955 9959 9964 9971 9979 9988 9996 10004 10012 10019 10026 10032 10038 10044
9869 9869 9869 9868 9869 9869 9868 9869 9871 9873 9874 9874 9874 9875 9875 9875 9877 9879 9881 9883 9884 9885 9886 9886 9886 9887 9888 9889 9891 9892 9894 9897 9899 9900 9901 9904 9907 9910 9911 9913 9916 9917 9918 9922 9926 9930 9933 9935 9939 9943 9948 9952 9957 9964 9972 9980 9987 9995 10003 10010 10016 10022 10027
9859 9858 9858 9858 9858 9858 9858 9859 9861 9863 9863 9863 9864 9864 9865 9867 9868 9869 9872 9874 9876 9876 9877 9877 9878 9879 9879 9880 9882 9883 9885 9888 9890 9890 9892 9894 9897 9900 9901 9905 9907 9907 9908 9911 9915 9918 9922 9924 9928 9933 9937 9941 9945 9951 9957 9963 9971 9979 9987 9993 9999 10005 10011
9848 9848 9848 9848 9848 9848 9848 9850 9852 9853 9853 9853 9854 9855 9856 9857 9859 9860 9863 9865 9867 9868 9868 9868 9870 9870 9871 9872 9873 9874 9877 9879 9880 9881 9882 9885 9887 9889 9892 9897 9898 9897 9898 9901 9903 9907 9911 9914 9918 9922 9926 9930 9934 9939 9944 9949 9956 9964 9970 9976 9982 9989 9995
9838 9838 9838 9838 9838 9838 9839 9840 9842 9843 9843 9843 9844 9845 9847 9848 9849 9851 9854 9857 9859 9860 9859 9860 9862 9862 9863 9864 9865 9866 9868 9871 9872 9872 9874 9876 9877 9879 9884 9889 9889 9887 9888 9890 9893 9897 9900 9903 9907 9911 9915 9919 9923 9927 9932 9936 9943 9950 9955 9961 9968 9974 9980
9828 9828 9829 9828 9828 9829 9830 9831 9833 9833 9833 9834 9835 9837 9838 9839 9840 9843 9846 9848 9850 9851 9851 9852 9853 9854 9855 9856 9856 9858 9860 9862 9863 9863 9865 9867 9868 9871 9875 9878 9878 9877 9878 9879 9882 9886 9889 9892 9895 9899 9903 9907 9912 9916 9920 9925 9931 9937 9941 9947 9953 9959 9965
9819 9819 9819 9819 9819 9820 9821 9822 9823 9824 9824 9825 9827 9828 9828 9830 9832 9835 9838 9839 9841 9842 9843 9845 9845 9845 9847 9848 9848 9850 9852 9853 9854 9855 9856 9858 9860 9862 9865 9868 9868 9869 9869 9869 9871 9875 9878 9881 9885 9888 9892 9897 9901 9906 9910 9915 9919 9923 9927 9931 9935 9941 9946
9810 9810 9810 9810 9810 9811 9812 9813 9814 9814 9815 9817 9818 9819 9820 9821 9824 9827 9829 9831 9833 9834 9836 9837 9837 9838 9839 9840 9841 9842 9844 9845 9845 9846 9848 9850 9852 9854 9856 9858 9859 9860 9859 9859 9861 9864 9867 9871 9875 9879 9882 9886 9891 9896 9899 9901 9904 9907 9911 9915 9918 9923 9928
9801 9801 9801 9801 9802 9803 9803 9804 9805 9805 9807 9808 9810 9810 9811 9813 9816 9818 9821 9823 9825 9826 9827 9829 9829 9830 9831 9832 9833 9835 9837 9837 9837 9838 9840 9842 9844 9846 9848 9849 9850 9850 9849 9850 9852 9854 9857 9861 9866 9870 9873 9877 9880 9883 9885 9886 9889 9893 9898 9903 9907 9911 9915
9793 9792 9792 9793 9794 9794 9794 9795 9796 9797 9799 9800 9801 9802 9803 9805 9808 9810 9813 9815 9817 9818 9820 9821 9821 9822 9823 9824 9826 9828 9829 9830 9830 9830 9831 9834 9836 9837 9839 9840 9841 9841 9840 9841 9843 9845 9849 9853 9857 9860 9864 9866 9868 9869 9871 9875 9879 9883 9888 9893 9898 9902 9904
9784 9784 9784 9785 9785 9785 9786 9787 9789 9789 9790 9791 9793 9794 9796 9797 9800 9803 9806 9807 9809 9811 9812 9813 9814 9815 9815 9816 9818 9820 9822 9823 9823 9823 9824 9826 9828 9829 9830 9832 9832 9832 9831 9832 9835 9837 9840 9844 9848 9850 9852 9854 9855 9857 9861 9866 9869 9872 9876 9881 9885 9889 9892
9776 9776 9776 9777 9776 9777 9778 9780 9781 9781 9782 9784 9786 9787 9789 9791 9793 9796 9798 9800 9802 9803 9804 9805 9806 9807 9808 9809 9811 9813 9815 9815 9816 9816 9816 9818 9820 9821 9822 9823 9824 9824 9823 9824 9827 9830 9832 9835 9838 9839 9840 9841 9844 9848 9852 9855 9858 9861 9865 9869 9872 9876 9879
9768 9768 9768 9769 9769 9769 9771 9772 9773 9774 9775 9777 9779 9780 9782 9784 9786 9789 9791 9793 9795 9796 9797 9798 9799 9800 9801 9802 9803 9805 9807 9808 9809 9809 9809 9811 9812 9813 9814 9815 9816 9816 9816 9816 9818 9821 9824 9826 9827 9828 9829 9832 9834 9838 9841 9844 9847 9850 9854 9857 9860 9863 9866
9760 9761 9761 9761 9762 9762 9763 9764 9765 9767 9768 9770 9772 9773 9775 9777 9779 9782 9784 9786 9788 9789 9790 9791 9792 9793 9794 9794 9796 9798 9800 9801 9802 9802 9803 9803 9804 9805 9806 9807 9808 9809 9809 9809 9810 9812 9815 9817 9818 9818 9820 9822 9825 9828 9831 9833 9836 9839 9843 9846 9848 9850 9854
9753 9753 9754 9754 9754 9754 9755 9757 9758 9760 9762 9763 9765 9766 9768 9770 9772 9775 9778 9780 9781 9782 9783 9784 9785 9786 9787 9788 9789 9791 9792 9794 9795 9795 9796 9796 9797 9798 9799 9800 9801 9802 9802 9802 9803 9804 9806 9807 9808 9810 9811 9813 9816 9818 9820 9822 9825 9829 9832 9834 9836 9840 9844
9746 9747 9747 9747 9747 9747 9748 9750 9752 9754 9756 9757 9758 9759 9761 9763 9765 9768 9771 9773 9774 9775 9777 9778 9778 9779 9780 9781 9782 9784 9785 9787 9788 9788 9789 9789 9790 9791 9791 9792 9793 9794 9795 9795 9796 9796 9797 9798 9800 9801 9803 9804 9806 9809 9810 9812 9815 9818 9821 9823 9826 9830 9834
9740 9740 9740 9740 9740 9741 9742 9744 9746 9748 9749 9750 9751 9752 9754 9756 9759 9761 9764 9765 9767 9769 9770 9771 9772 9773 9773 9774 9775 9777 9778 9780 9781 9782 9782 9783 9783 9784 9784 9785 9786 9787 9788 9788 9789 9789 9790 9791 9792 9793 9794 9796 9798 9799 9800 9802 9805 9807 9810 9813 9816 9820 9823
9733 9733 9733 9733 9733 9734 9736 9738 9740 9741 9742 9743 9745 9746 9748 9750 9752 9754 9756 9758 9760 9762 9764 9765 9765 9766 9767 9768 9769 9770 9771 9773 9774 9775 9776 9776 9777 9777 9778 9778 9779 9780 9780 9781 9782 9782 9783 9783 9784 9785 9787 9788 9789 9790 9792 9793 9796 9798 9800 9803 9806 9810 9814
9727 9727 9727 9727 9727 9728 9729 9731 9733 9735 9736 9737 9739 9740 9742 9744 9746 9747 9749 9751 9754 9756 9757 9758 9759 9759 9760 9761 9762 9763 9765 9766 9767 9769 9769 9770 9770 9770 9771 9772 9772 9773 9773 9774 9775 9775 9776 9776 9777 9778 9779 9780 9782 9783 9783 9785 9787 9789 9791 9794 9797 9801 9804
9721 9721 9721 9721 9721 9722 9723 9725 9726 9728 9730 9731 9733 9735 9736 9738 9740 9741 9742 9745 9747 9749 9750 9751 9752 9753 9754 9755 9756 9757 9758 9759 9761 9762 9763 9763 9764 9764 9764 9765 9766 9766 9767 9767 9768 9768 9769 9769 9770 9771 9772 9773 9774 9775 9776 9777 9778 9780 9783 9785 9788 9791 9794
9715 9715 9715 9715 9715 9716 9717 9718 9720 9722 9724 9725 9727 9729 9730 9732 9733 9734 9736 9738 9740 9742 9743 9745 9746 9747 9748 9749 9750 9751 9752 9753 9754 9755 9756 9757 9757 9758 9758 9758 9759 9760 9760 9761 9761 9762 9762 9762 9763 9764 9765 9766 9767 9768 9768 9769 9771 9772 9774 9777 9780 9783 9785